Vorticity
32 28 23 16 10 7 5 3 3 3 6 13 18 17 14 12 9 7 5 2 2 3 6 9 11 10 9 7 5 4 3 2 3 3 4 5 5 6 8 9 10 11 11 13 14 14 14 13 11 10 9 9 10 10 10 10 10 11 11 11 10 9 8 8 8 7 7 7 8 7 6 6 6 6 5 4 5 5 5 5 5 4 4 5 6
26 30 32 29 24 18 15 11 7 5 9 14 17 18 18 14 9 7 7 7 6 5 5 6 8 9 10 11 11 10 9 7 5 4 3 3 3 3 3 3 4 5 6 7 8 11 13 15 14 14 13 12 11 11 11 11 11 12 13 14 15 14 14 13 12 12 11 11 10 8 7 6 6 6 7 7 6 5 4 5 5 4 4 5 6
20 22 25 27 29 26 21 19 17 14 11 11 11 13 16 16 12 8 6 6 7 6 6 5 5 5 5 5 6 7 7 8 7 7 6 5 5 4 4 4 4 4 4 4 4 4 4 6 7 7 8 7 7 7 7 7 7 9 10 12 14 15 15 15 14 14 14 13 12 10 9 10 9 8 7 7 6 6 6 5 4 4 4 6 6
17 19 20 22 27 30 24 16 12 10 8 6 6 7 9 12 14 13 9 7 6 4 4 3 2 1 1 2 4 6 7 7 7 6 6 5 6 7 9 11 11 10 9 8 8 7 6 5 5 5 4 3 3 4 5 6 7 8 8 10 12 13 14 14 15 15 14 14 14 14 14 13 12 10 8 7 8 8 7 6 6 6 6 6 6
10 13 16 17 20 28 30 21 11 7 7 6 5 3 2 3 6 9 10 9 8 7 6 6 5 4 2 1 2 4 7 9 9 7 6 5 6 7 8 9 10 11 12 11 11 10 10 9 9 8 8 7 7 7 9 12 13 13 12 12 13 13 14 14 13 13 12 11 11 12 12 10 9 8 7 6 6 6 5 5 5 5 6 7 10
9 9 12 14 15 18 26 30 26 18 10 7 7 6 4 1 -1 -1 1 3 6 7 8 8 8 8 7 6 4 2 2 3 4 5 6 5 5 7 7 5 4 5 7 11 13 13 12 10 9 9 9 10 12 14 17 18 16 14 14 13 13 12 11 10 9 8 8 8 8 8 9 8 7 8 7 5 5 5 5 5 6 7 9 11 12
10 10 10 11 12 13 15 21 28 29 24 15 10 8 9 9 8 5 3 1 1 2 4 6 7 7 6 5 4 4 6 8 7 5 3 2 3 6 9 10 8 5 3 4 7 10 12 13 14 15 16 19 21 22 21 18 14 12 11 9 9 8 8 8 8 7 7 8 8 9 10 9 8 8 8 7 7 8 8 9 10 10 9 8 8
10 12 11 10 10 11 12 13 17 24 29 27 20 12 7 6 7 8 10 10 9 6 5 5 5 5 5 6 6 6 8 10 9 6 3 3 6 9 13 16 15 12 9 7 7 11 13 14 15 18 19 21 23 22 18 14 11 10 8 8 7 7 7 7 7 8 8 8 9 9 10 10 9 10 10 9 10 11 11 10 9 8 8 7 8
10 11 12 12 12 11 11 11 12 13 19 25 28 25 19 11 6 3 3 6 9 9 10 10 9 7 5 6 6 6 8 10 11 12 13 15 18 18 17 16 15 14 13 12 11 11 10 8 8 11 13 15 15 13 11 9 9 9 9 9 10 10 10 10 9 10 9 9 9 9 10 11 10 11 12 12 12 12 11 10 10 10 10 10 9
11 11 11 11 13 13 13 12 12 11 11 15 19 24 27 25 20 14 10 7 6 5 6 8 9 10 9 7 6 7 9 8 7 9 13 17 19 19 16 14 12 12 11 10 10 9 7 8 10 12 14 14 10 7 6 7 8 9 10 10 11 11 11 11 11 11 11 12 12 12 12 13 13 13 13 12 11 10 10 10 10 9 8 7 9
14 13 12 11 10 12 14 14 14 13 12 11 12 14 19 23 25 24 22 19 17 15 14 13 12 11 11 11 11 12 13 11 7 5 5 6 7 9 11 13 13 12 11 10 8 7 7 10 12 14 12 9 7 6 7 8 9 10 10 10 11 11 12 13 13 13 13 14 14 13 13 13 13 12 11 10 10 10 10 9 9 8 8 10 11
14 14 14 14 13 12 12 13 14 15 15 14 12 11 11 14 18 21 22 21 20 18 17 17 18 19 20 19 17 14 12 11 10 9 7 5 4 4 6 8 9 11 12 12 11 10 11 11 11 10 8 7 7 7 7 8 9 10 10 11 13 13 13 13 13 13 12 12 11 11 10 10 10 9 9 9 9 9 9 9 10 12 13 14 15
13 14 14 15 15 15 14 13 13 13 14 15 15 13 12 11 11 14 17 20 21 19 16 12 10 12 15 19 22 22 19 16 12 10 8 7 8 8 9 10 11 12 12 11 9 9 9 10 10 9 8 8 8 6 5 7 8 8 10 12 12 11 10 9 9 9 9 9 8 9 9 9 8 8 9 10 10 10 12 13 15 16 16 16 17
15 14 14 14 14 14 15 15 15 14 14 14 14 14 14 13 11 10 11 13 17 20 22 20 16 10 5 3 5 9 13 15 16 16 15 14 12 11 12 13 13 12 10 8 5 3 4 7 9 9 8 8 7 6 6 8 8 8 9 10 9 8 8 8 8 9 10 10 11 11 12 12 12 13 14 14 14 15 16 17 17 16 16 16 15
15 15 15 15 14 13 13 13 14 14 14 14 14 14 14 13 13 12 11 11 11 12 15 19 21 21 17 11 5 1 -1 0 3 5 7 9 10 11 11 12 11 10 8 7 5 3 5 8 10 10 10 9 8 8 9 9 9 9 9 9 9 9 10 10 11 12 12 12 13 14 14 14 15 15 15 15 15 15 16 16 15 14 14 13 13
13 14 15 15 15 14 13 13 13 13 13 13 13 13 13 13 12 12 12 12 12 12 13 14 15 17 20 19 17 14 9 5 2 -0 -2 -2 -2 -1 -0 1 2 3 4 5 6 8 9 10 10 10 10 9 9 8 9 9 10 10 10 10 10 10 11 12 12 11 11 12 12 12 12 12 12 13 12 13 13 12 12 11 10 10 11 10 10
15 14 14 15 15 14 14 13 13 13 13 13 13 13 13 13 14 14 14 14 13 14 14 16 17 17 17 18 20 20 20 18 15 11 6 3 3 2 0 -0 -0 -1 -1 0 2 3 4 4 3 3 4 4 5 5 5 6 6 6 7 7 7 8 9 10 10 10 10 10 10 10 10 10 10 10 10 9 9 9 9 9 10 12 12 12 13
16 16 15 14 14 14 15 14 13 13 12 12 13 13 14 15 15 15 16 16 16 17 19 21 23 24 24 24 24 26 27 28 28 27 23 19 17 15 13 10 9 7 6 5 4 4 5 6 7 7 7 8 8 8 8 8 8 9 9 9 9 9 10 11 11 10 9 9 9 10 10 9 10 10 10 10 10 9 9 10 11 12 12 13 15
16 16 15 14 13 13 14 14 13 13 13 13 13 14 14 16 16 16 17 18 20 22 24 25 25 25 26 25 25 25 26 27 29 32 34 33 32 31 28 25 22 20 18 18 17 16 15 14 13 13 13 13 14 14 14 13 14 14 13 12 12 12 12 12 11 11 11 11 12 12 12 12 11 10 10 10 10 10 10 11 11 11 12 12 13
18 16 15 15 14 13 13 14 14 15 15 14 15 15 15 15 16 18 20 21 23 22 21 20 19 18 18 20 22 23 25 26 26 27 29 31 31 33 35 34 32 30 28 27 25 23 21 20 19 18 18 18 17 16 16 15 15 15 14 15 16 16 15 14 12 12 12 11 10 9 9 9 9 10 10 11 12 13 14 14 14 15 16 16 15
17 15 15 15 14 14 14 15 16 17 16 15 15 15 15 15 16 17 18 17 16 15 15 15 14 14 16 18 21 22 24 25 26 25 26 26 25 25 27 29 31 31 31 29 27 25 23 21 20 20 19 19 18 17 16 16 15 15 14 13 13 13 13 13 12 12 12 12 12 13 14 16 18 19 20 20 19 18 17 16 14 13 12 13 12
16 15 15 15 15 15 15 16 17 17 16 15 15 15 15 17 17 14 12 11 11 13 14 13 12 15 18 18 17 18 18 20 22 23 24 26 26 26 25 26 27 28 29 28 28 27 25 22 19 16 14 13 12 11 10 10 11 11 11 11 11 13 15 16 17 18 19 20 21 22 22 22 21 20 19 18 16 14 13 12 11 10 9 9 8
17 16 15 16 15 15 16 17 17 16 15 15 15 16 17 17 14 10 8 9 12 15 14 12 15 18 16 14 14 14 15 16 17 18 19 20 22 22 22 22 23 23 23 24 24 25 25 25 25 24 23 22 22 21 22 22 22 22 23 24 25 25 24 23 23 23 22 21 19 17 16 14 13 12 12 11 11 10 10 10 10 10 9 8 7
18 17 16 16 15 15 15 16 15 15 15 15 15 16 16 14 10 8 9 11 14 16 13 11 16 19 14 10 11 12 12 13 13 14 15 15 16 17 18 18 18 18 19 19 20 20 21 22 23 25 26 27 27 27 28 27 26 26 26 26 25 23 21 19 18 16 15 14 13 13 12 11 11 10 9 8 8 7 6 6 6 6 6 6 6
19 18 17 16 15 15 15 15 15 14 15 15 15 16 15 12 9 8 10 13 16 16 13 11 16 19 14 7 7 7 7 8 8 8 9 10 11 12 13 13 13 12 13 13 13 14 15 15 16 16 16 16 16 16 16 16 16 17 16 15 14 13 13 12 11 11 10 10 9 9 9 8 8 8 8 8 8 8 7 7 7 7 8 8 8
20 18 17 17 16 16 16 15 13 14 15 15 15 16 14 11 9 8 11 15 16 15 13 11 14 18 15 9 5 4 4 4 4 3 4 5 6 7 7 8 8 8 8 8 8 8 9 9 9 9 9 9 10 11 11 11 11 10 10 10 10 10 9 9 9 9 8 8 9 9 9 9 9 9 9 9 8 8 8 8 9 9 8 8 8
21 18 17 17 16 15 15 14 13 13 14 14 15 16 14 12 10 10 12 15 16 14 13 12 12 14 15 12 8 6 5 6 6 6 6 6 7 7 8 8 8 9 9 9 8 8 8 8 8 8 9 9 10 10 10 10 11 11 10 10 10 10 11 11 11 11 11 10 10 10 9 9 8 8 8 8 8 8 8 8 8 8 8 8 8
19 16 16 16 15 15 14 14 14 13 14 14 14 15 13 12 11 12 13 16 16 15 14 14 14 14 15 15 14 13 12 13 13 13 13 13 14 14 13 13 14 14 13 13 12 11 11 11 11 12 12 12 11 11 12 12 12 12 12 12 12 11 11 10 9 9 8 8 8 8 9 9 9 9 8 8 7 7 6 5 5 4 4 4 4
18 16 15 14 15 15 14 13 13 13 14 15 15 14 12 11 12 13 14 16 17 16 15 15 15 15 14 14 15 16 16 16 16 16 16 16 16 16 16 16 16 15 15 14 13 13 13 13 12 12 11 11 10 10 10 9 10 10 9 9 9 8 8 8 8 9 9 9 9 8 7 7 6 7 7 8 10 12 13 15 17 18 20 21 21
17 16 15 15 15 15 14 13 12 12 14 14 14 13 12 11 12 14 15 16 16 15 14 14 14 14 14 14 15 16 16 15 15 15 16 16 16 16 15 14 13 12 11 12 11 11 10 10 10 9 9 9 9 9 9 8 8 8 8 8 9 9 9 9 9 8 8 8 9 11 14 17 21 25 29 32 35 38 39 41 42 42 43 43 44
17 15 15 15 15 15 14 12 11 12 14 15 14 13 13 12 13 14 15 16 15 14 13 13 14 14 15 16 16 16 16 16 15 14 14 13 12 11 10 9 8 8 8 8 8 8 8 8 8 8 8 8 9 9 9 9 10 10 11 11 10 10 10 11 13 16 20 25 29 32 34 36 36 35 34 33 31 29 27 26 24 24 23 23 23
16 15 15 15 14 14 13 12 12 13 14 14 14 14 14 14 15 15 15 14 13 13 14 15 15 15 15 15 14 13 12 12 11 10 9 8 7 7 7 7 7 7 7 8 8 8 9 9 9 10 10 11 11 11 12 12 12 11 12 13 15 18 22 27 30 32 33 32 30 27 24 21 19 17 15 14 13 12 12 11 11 11 11 10 11
14 14 15 14 14 13 12 12 13 14 14 15 16 16 15 15 15 15 15 15 13 13 15 16 16 15 12 10 9 8 8 8 8 8 8 7 6 7 8 8 8 8 8 9 9 10 10 11 11 12 12 12 12 12 12 12 14 17 21 25 29 31 31 29 25 21 18 15 13 12 11 11 11 11 11 10 10 10 10 10 9 10 10 10 10
14 14 13 13 13 13 13 13 14 15 15 16 16 16 16 16 16 15 16 17 17 15 13 11 11 9 8 7 7 6 7 8 8 8 9 8 8 9 9 9 9 10 10 10 11 11 12 12 12 12 12 13 13 15 18 22 27 30 31 29 26 22 17 15 12 11 11 11 11 11 11 10 10 10 10 9 9 9 9 9 9 9 10 10 10
13 13 13 13 13 13 15 16 16 16 16 16 16 17 18 19 18 17 15 14 13 12 10 8 8 7 7 7 7 7 7 7 7 8 9 9 9 10 10 11 11 12 12 13 13 13 13 13 13 14 15 17 21 25 29 30 29 25 20 15 13 11 11 11 11 11 11 11 11 10 10 10 10 10 10 10 10 9 9 9 9 9 9 10 10
13 13 13 13 13 15 16 17 17 17 17 17 17 18 17 17 15 14 12 9 7 6 6 6 7 8 8 8 9 9 9 9 9 9 10 10 11 12 12 13 13 14 14 14 14 14 14 16 17 19 21 25 29 29 26 21 16 12 11 10 10 10 10 9 9 10 10 10 10 10 10 10 9 9 9 9 9 9 10 10 10 11 11 11 11
13 13 13 14 15 17 17 17 17 16 16 15 15 14 12 10 8 8 8 8 7 7 7 7 6 7 7 7 9 10 10 10 11 11 11 12 12 13 13 14 14 15 15 15 16 17 20 21 23 25 27 27 25 20 14 11 9 9 9 9 9 8 8 8 9 9 8 8 8 8 9 9 9 10 10 10 10 10 11 11 11 12 12 12 12
12 13 14 16 16 16 15 15 14 14 13 12 10 8 7 7 7 7 7 7 7 7 8 8 9 8 7 7 7 8 9 10 11 11 12 12 12 13 14 14 15 15 16 17 20 22 24 24 25 26 25 21 15 11 9 9 9 9 8 8 7 7 7 7 7 7 7 8 8 9 9 9 9 9 9 9 10 11 12 12 13 13 14 15 15
13 14 15 15 14 14 13 12 11 11 10 8 6 7 7 6 7 7 6 6 6 6 6 6 5 6 6 7 7 8 10 11 12 12 13 13 13 14 14 14 15 16 17 20 23 23 23 24 25 22 17 12 9 8 8 8 8 8 7 6 6 5 6 6 6 7 8 8 8 8 8 8 9 9 9 10 11 12 13 14 15 15 16 17 17
13 13 12 12 13 12 11 9 8 7 6 6 6 6 7 7 6 6 5 5 5 5 5 4 3 3 3 4 5 7 9 11 12 13 14 14 14 14 14 14 14 16 20 23 23 21 21 23 22 16 11 8 7 7 7 7 7 6 5 5 5 5 5 6 6 7 8 9 8 8 8 8 9 10 11 12 13 14 15 15 16 17 18 19 21
12 11 10 10 11 10 9 8 7 6 6 6 7 7 6 6 6 5 5 5 5 4 3 2 2 2 2 2 4 7 8 11 13 13 14 14 13 13 13 12 13 18 23 24 21 20 21 21 17 12 9 7 6 6 6 6 6 5 4 4 4 5 6 6 7 8 9 8 7 7 8 9 10 11 13 14 15 15 16 17 19 21 23 24 25
10 10 9 9 9 8 8 7 6 6 7 7 7 8 8 7 6 5 6 6 6 5 4 3 2 2 2 2 4 6 8 10 12 13 13 13 13 12 12 11 13 18 24 23 20 20 21 19 14 11 8 6 6 6 6 5 5 4 4 4 5 6 6 7 8 9 8 7 7 8 9 11 12 13 14 15 15 17 20 23 25 25 25 25 24
10 9 8 8 8 7 6 7 6 7 8 8 8 9 9 8 8 7 6 6 5 4 4 3 2 2 3 4 5 7 8 10 11 12 12 13 12 11 11 10 12 18 24 23 20 20 21 18 14 10 8 7 7 6 5 5 5 4 5 5 6 6 7 8 8 8 7 7 8 9 11 12 14 15 15 17 20 24 26 26 25 23 22 23 25
9 9 9 9 8 7 7 7 7 7 8 8 9 10 9 9 9 8 6 6 5 4 3 4 4 4 5 6 6 7 8 10 11 12 12 12 12 11 10 10 11 17 23 23 19 19 21 19 14 11 9 7 7 6 6 6 5 5 6 7 6 7 8 9 8 7 7 8 9 11 13 14 14 15 18 23 26 27 25 23 22 22 24 26 28
9 9 8 8 8 8 7 7 8 8 9 8 8 9 9 8 8 8 8 8 7 6 6 7 7 7 7 7 7 8 9 10 11 11 11 12 13 12 11 10 11 16 23 24 19 18 20 18 14 11 9 8 7 7 6 6 6 7 7 7 7 8 9 9 7 7 8 10 11 13 14 14 16 20 26 28 27 24 22 21 22 23 24 26 27
9 8 8 7 7 7 7 7 7 7 7 7 7 7 7 7 7 8 8 8 9 8 9 8 8 7 7 7 7 8 9 9 10 10 11 13 14 12 11 11 12 15 22 24 20 17 19 18 15 12 10 8 8 8 7 7 7 7 6 7 9 9 9 7 7 8 9 11 13 14 14 17 23 28 28 25 22 21 21 22 22 22 23 24 25
8 8 7 7 7 7 7 7 7 7 7 8 8 8 9 10 10 10 10 10 10 9 9 8 7 7 7 7 8 8 9 9 11 11 12 14 14 12 12 12 12 15 22 24 20 17 18 18 15 13 11 9 8 7 7 7 7 7 7 9 10 9 8 8 8 9 12 13 13 15 19 25 29 28 24 21 21 21 21 20 20 20 19 20 20
9 9 8 8 8 8 9 9 10 10 10 10 11 11 12 12 11 11 10 10 9 8 7 7 7 7 7 8 8 9 9 10 12 13 14 15 15 14 14 13 13 16 22 24 19 17 18 18 15 13 12 10 8 8 8 7 7 8 9 10 9 8 8 9 10 11 13 14 15 20 26 29 27 23 21 21 21 20 19 18 18 17 17 18 19
8 8 9 9 9 9 9 10 11 11 11 11 11 11 10 10 9 8 8 8 7 7 7 7 7 7 8 8 9 11 12 14 15 15 15 16 15 14 14 13 14 18 23 23 19 17 17 17 15 13 12 10 9 8 8 8 9 10 10 9 9 8 8 10 12 13 13 16 21 27 29 26 22 21 21 21 20 19 19 19 18 18 19 19 19
8 8 8 8 7 8 8 8 8 9 9 9 9 8 8 8 8 7 8 8 7 7 7 7 7 8 10 12 14 16 16 17 16 16 16 16 16 16 16 15 16 20 24 22 18 16 17 16 14 13 12 10 9 9 9 9 11 11 10 8 8 9 10 12 13 13 16 21 27 28 25 22 21 21 20 20 20 21 20 20 19 19 19 18 18
7 7 7 7 7 7 7 7 7 8 8 8 8 8 8 8 8 8 8 8 8 8 10 11 13 16 17 18 19 19 19 20 20 20 21 21 21 21 21 20 21 23 23 20 17 16 16 15 12 11 10 10 9 10 10 11 11 10 9 8 9 10 12 12 12 15 21 26 27 25 22 22 22 21 21 21 22 21 20 20 19 19 18 17 17
Height
5485 5484 5484 5483 5483 5483 5483 5483 5483 5483 5483 5484 5485 5486 5487 5488 5488 5489 5489 5489 5490 5490 5491 5492 5492 5493 5493 5494 5495 5495 5496 5496 5497 5498 5499 5501 5502 5502 5503 5504 5505 5506 5507 5508 5509 5508 5509 5510 5510 5510 5509 5510 5510 5510 5511 5511 5511 5511 5511 5512 5512 5511 5511 5509 5512 5518 5516 5514 5518 5521 5522 5520 5517 5518 5518 5517 5519 5518 5517 5519 5520 5520 5520 5521 5522
5472 5472 5471 5471 5471 5471 5471 5471 5471 5471 5472 5472 5473 5474 5475 5476 5476 5477 5477 5478 5479 5479 5480 5480 5481 5482 5482 5483 5484 5484 5485 5485 5485 5487 5488 5489 5490 5491 5492 5492 5493 5495 5496 5497 5498 5498 5498 5499 5499 5499 5498 5499 5499 5499 5500 5500 5500 5500 5500 5501 5501 5500 5500 5499 5500 5503 5504 5504 5505 5507 5510 5508 5506 5507 5507 5506 5506 5506 5506 5508 5508 5508 5509 5509 5510
5459 5459 5459 5459 5458 5459 5459 5459 5459 5460 5460 5461 5462 5462 5463 5464 5464 5465 5466 5466 5467 5468 5468 5469 5469 5470 5471 5472 5473 5473 5473 5474 5474 5476 5477 5478 5479 5479 5480 5481 5482 5483 5485 5486 5486 5486 5487 5487 5488 5488 5487 5487 5488 5488 5488 5489 5489 5489 5489 5489 5489 5489 5489 5487 5488 5490 5491 5492 5492 5494 5498 5496 5494 5495 5496 5494 5494 5494 5495 5496 5495 5496 5497 5497 5497
5448 5448 5448 5447 5447 5447 5447 5447 5448 5448 5449 5449 5450 5451 5451 5452 5453 5454 5454 5455 5455 5456 5457 5458 5458 5459 5460 5460 5461 5461 5462 5462 5463 5464 5465 5466 5467 5468 5469 5469 5471 5472 5473 5474 5474 5474 5475 5476 5476 5476 5476 5476 5476 5476 5477 5478 5478 5477 5478 5477 5477 5478 5477 5476 5477 5477 5478 5479 5480 5481 5485 5485 5482 5482 5485 5483 5482 5483 5483 5483 5483 5484 5485 5485 5485
5438 5437 5437 5436 5436 5436 5436 5436 5437 5437 5438 5438 5439 5439 5440 5441 5442 5442 5443 5443 5444 5445 5445 5446 5447 5448 5449 5449 5449 5450 5450 5451 5452 5453 5454 5454 5455 5456 5457 5458 5459 5460 5461 5462 5462 5463 5463 5464 5464 5464 5464 5464 5465 5466 5466 5466 5466 5465 5466 5466 5466 5466 5465 5465 5465 5465 5465 5467 5468 5468 5472 5474 5470 5470 5473 5472 5469 5470 5471 5471 5472 5472 5472 5472 5472
5427 5427 5426 5426 5425 5425 5425 5425 5425 5425 5426 5427 5427 5428 5428 5429 5430 5430 5431 5432 5433 5433 5434 5435 5436 5437 5438 5438 5438 5439 5439 5440 5441 5441 5442 5443 5444 5444 5445 5446 5447 5448 5449 5450 5450 5451 5451 5452 5453 5452 5452 5453 5454 5454 5454 5454 5454 5454 5455 5455 5454 5454 5454 5454 5454 5453 5453 5455 5456 5456 5460 5461 5459 5459 5461 5460 5457 5458 5459 5459 5460 5460 5459 5459 5460
5415 5415 5415 5415 5415 5414 5414 5414 5414 5414 5414 5415 5416 5417 5417 5418 5418 5419 5419 5420 5421 5421 5422 5423 5424 5425 5426 5427 5428 5428 5429 5430 5430 5431 5431 5432 5433 5433 5434 5435 5436 5436 5437 5438 5438 5439 5440 5440 5440 5441 5441 5442 5443 5443 5442 5442 5442 5443 5444 5444 5442 5442 5443 5443 5442 5442 5442 5443 5443 5444 5447 5448 5447 5447 5449 5448 5445 5446 5447 5447 5446 5446 5446 5446 5446
5404 5404 5404 5404 5403 5403 5403 5403 5403 5403 5403 5403 5404 5405 5405 5406 5407 5407 5408 5408 5409 5410 5410 5411 5412 5413 5414 5415 5416 5417 5417 5418 5419 5420 5420 5421 5422 5423 5423 5424 5425 5425 5426 5426 5427 5427 5428 5429 5429 5430 5430 5431 5431 5431 5431 5431 5431 5432 5433 5432 5431 5431 5431 5431 5431 5430 5431 5431 5431 5432 5433 5435 5436 5435 5436 5436 5435 5434 5434 5433 5432 5432 5432 5432 5433
5392 5392 5392 5393 5393 5392 5392 5392 5392 5392 5392 5392 5392 5393 5393 5394 5395 5396 5396 5397 5397 5398 5399 5400 5400 5401 5402 5403 5403 5404 5405 5406 5407 5408 5409 5410 5411 5412 5412 5413 5413 5414 5415 5416 5416 5417 5417 5418 5418 5419 5419 5420 5420 5419 5420 5420 5420 5421 5421 5420 5419 5419 5419 5419 5419 5419 5418 5419 5420 5419 5419 5422 5424 5423 5424 5425 5423 5421 5420 5419 5420 5419 5418 5419 5421
5380 5380 5380 5381 5381 5381 5381 5381 5381 5381 5381 5381 5381 5381 5382 5382 5383 5384 5385 5385 5386 5387 5387 5388 5389 5390 5391 5391 5392 5392 5393 5394 5394 5395 5396 5397 5399 5400 5401 5402 5402 5403 5404 5405 5405 5406 5406 5407 5408 5408 5408 5408 5408 5408 5408 5408 5408 5409 5409 5408 5407 5407 5407 5407 5407 5407 5406 5407 5408 5407 5406 5409 5411 5410 5411 5412 5410 5408 5406 5407 5407 5405 5404 5406 5409
5368 5368 5368 5368 5369 5369 5370 5370 5370 5370 5370 5370 5370 5370 5370 5371 5371 5371 5372 5373 5374 5375 5376 5376 5377 5378 5379 5380 5380 5381 5382 5382 5383 5383 5384 5385 5387 5388 5389 5390 5391 5392 5393 5394 5394 5395 5395 5396 5396 5396 5396 5397 5397 5397 5396 5396 5396 5396 5396 5396 5396 5395 5396 5395 5395 5396 5394 5395 5396 5394 5395 5397 5398 5396 5397 5398 5397 5395 5393 5393 5393 5393 5392 5395 5398
5356 5355 5355 5356 5356 5357 5358 5358 5359 5359 5360 5360 5360 5360 5359 5360 5360 5360 5360 5361 5362 5363 5364 5365 5365 5366 5367 5368 5369 5370 5370 5371 5371 5372 5373 5374 5375 5376 5377 5377 5378 5379 5380 5382 5382 5383 5384 5384 5384 5385 5385 5385 5385 5385 5385 5384 5385 5384 5385 5385 5384 5384 5384 5384 5384 5384 5383 5383 5383 5383 5384 5385 5384 5384 5385 5384 5383 5382 5380 5380 5381 5382 5381 5383 5385
5344 5344 5344 5344 5344 5345 5345 5346 5347 5348 5348 5349 5349 5349 5349 5349 5349 5349 5349 5349 5350 5351 5352 5353 5354 5355 5355 5356 5357 5358 5358 5359 5360 5361 5362 5364 5364 5364 5365 5365 5366 5367 5368 5369 5370 5371 5372 5372 5373 5373 5373 5373 5373 5373 5373 5373 5373 5373 5373 5373 5373 5374 5373 5373 5373 5373 5372 5372 5372 5373 5374 5373 5372 5372 5372 5371 5368 5368 5368 5369 5370 5370 5368 5370 5372
5332 5332 5332 5332 5332 5332 5333 5334 5335 5336 5337 5337 5338 5338 5339 5338 5338 5338 5338 5338 5338 5339 5339 5340 5341 5342 5344 5344 5345 5346 5346 5347 5348 5349 5351 5353 5352 5352 5353 5354 5354 5356 5357 5357 5358 5359 5360 5361 5361 5362 5361 5361 5362 5362 5361 5361 5361 5361 5361 5362 5363 5363 5362 5362 5362 5361 5361 5361 5361 5361 5362 5360 5360 5360 5359 5357 5355 5355 5357 5357 5356 5356 5356 5357 5359
5319 5320 5321 5320 5320 5321 5321 5322 5323 5324 5325 5326 5326 5327 5328 5328 5328 5328 5328 5328 5328 5328 5328 5328 5329 5329 5330 5332 5333 5334 5334 5335 5336 5338 5341 5341 5341 5341 5341 5342 5343 5344 5345 5346 5347 5347 5348 5349 5350 5350 5350 5350 5350 5350 5350 5350 5350 5350 5350 5350 5351 5351 5351 5351 5350 5349 5348 5349 5349 5349 5349 5348 5347 5347 5346 5344 5344 5344 5343 5343 5343 5344 5343 5344 5345
5307 5308 5309 5309 5309 5309 5310 5311 5311 5312 5313 5314 5314 5315 5316 5317 5317 5317 5317 5317 5317 5317 5317 5317 5317 5317 5317 5318 5319 5320 5321 5322 5323 5326 5329 5329 5328 5329 5330 5330 5331 5333 5333 5334 5335 5336 5336 5337 5338 5338 5338 5338 5338 5338 5338 5338 5338 5338 5339 5339 5339 5340 5341 5341 5339 5337 5337 5337 5338 5337 5336 5336 5335 5335 5334 5332 5332 5332 5330 5329 5331 5331 5331 5330 5331
5295 5296 5297 5297 5297 5298 5299 5300 5300 5301 5301 5302 5303 5304 5305 5305 5306 5306 5307 5307 5307 5307 5307 5306 5306 5306 5306 5306 5306 5306 5308 5309 5310 5313 5316 5317 5316 5316 5317 5318 5319 5320 5321 5322 5323 5324 5325 5325 5326 5326 5326 5326 5326 5326 5326 5326 5327 5327 5327 5328 5328 5328 5330 5329 5327 5326 5325 5325 5326 5326 5325 5324 5323 5323 5322 5321 5321 5319 5316 5317 5319 5318 5316 5316 5317
5284 5285 5285 5285 5286 5287 5288 5289 5290 5290 5290 5291 5292 5293 5293 5294 5295 5296 5296 5296 5296 5296 5296 5296 5295 5295 5295 5295 5295 5295 5295 5296 5297 5298 5302 5304 5303 5302 5304 5306 5306 5308 5309 5310 5312 5312 5313 5313 5313 5314 5314 5313 5314 5314 5313 5314 5315 5316 5316 5316 5317 5317 5318 5318 5315 5314 5313 5313 5314 5314 5312 5312 5311 5310 5309 5308 5308 5306 5304 5305 5305 5304 5303 5303 5304
5273 5273 5274 5274 5275 5277 5278 5279 5280 5280 5280 5281 5281 5282 5283 5284 5284 5285 5285 5285 5285 5285 5285 5285 5285 5285 5285 5285 5285 5285 5284 5285 5285 5286 5288 5291 5291 5289 5290 5292 5294 5295 5296 5298 5299 5299 5300 5300 5301 5301 5301 5301 5301 5301 5301 5301 5303 5304 5304 5304 5306 5306 5306 5305 5303 5302 5301 5301 5301 5301 5299 5299 5299 5298 5297 5296 5294 5292 5293 5293 5291 5290 5291 5291 5290
5261 5262 5263 5264 5265 5266 5268 5269 5270 5271 5271 5271 5272 5273 5273 5274 5274 5275 5275 5276 5276 5276 5276 5276 5276 5276 5276 5276 5276 5276 5275 5275 5275 5275 5276 5279 5279 5278 5277 5279 5281 5282 5284 5285 5285 5286 5287 5288 5289 5289 5290 5290 5290 5290 5289 5289 5290 5292 5293 5293 5294 5294 5293 5292 5292 5290 5289 5289 5289 5288 5287 5287 5286 5286 5286 5285 5282 5280 5280 5281 5280 5278 5279 5279 5278
5249 5251 5252 5253 5255 5256 5258 5259 5260 5261 5262 5262 5263 5263 5264 5264 5265 5266 5266 5267 5267 5268 5268 5268 5268 5268 5268 5268 5267 5267 5267 5266 5266 5266 5266 5267 5269 5269 5267 5268 5270 5271 5272 5272 5273 5274 5275 5276 5277 5278 5278 5278 5279 5279 5279 5279 5279 5280 5282 5282 5283 5282 5281 5281 5281 5279 5277 5277 5277 5276 5276 5275 5274 5274 5273 5273 5271 5269 5267 5268 5270 5268 5267 5268 5267
5239 5240 5242 5243 5245 5247 5248 5250 5251 5252 5253 5253 5254 5255 5255 5256 5256 5257 5258 5259 5259 5260 5260 5260 5261 5260 5260 5260 5259 5259 5259 5258 5258 5258 5258 5259 5260 5261 5260 5259 5260 5262 5262 5262 5263 5264 5265 5265 5266 5267 5267 5267 5267 5268 5268 5269 5268 5269 5271 5271 5272 5271 5269 5268 5268 5267 5266 5266 5266 5265 5265 5264 5263 5262 5262 5261 5260 5258 5255 5255 5257 5258 5256 5257 5256
5229 5231 5232 5234 5236 5238 5239 5241 5242 5243 5244 5245 5246 5247 5247 5248 5249 5249 5250 5251 5251 5252 5252 5253 5253 5253 5253 5253 5252 5252 5252 5252 5251 5251 5251 5252 5253 5253 5253 5253 5253 5253 5253 5253 5254 5254 5254 5255 5255 5256 5256 5256 5256 5257 5258 5258 5257 5258 5259 5260 5260 5259 5258 5257 5257 5256 5255 5255 5255 5255 5254 5253 5252 5252 5251 5250 5249 5248 5245 5243 5244 5245 5245 5245 5244
5219 5221 5223 5225 5227 5229 5231 5232 5234 5235 5236 5237 5238 5239 5239 5240 5241 5242 5243 5243 5244 5244 5245 5245 5246 5246 5246 5246 5246 5246 5245 5245 5245 5245 5245 5246 5246 5247 5247 5247 5246 5246 5245 5245 5245 5245 5245 5246 5246 5246 5246 5246 5247 5247 5248 5247 5247 5248 5249 5249 5248 5248 5247 5247 5246 5246 5246 5245 5244 5244 5244 5243 5242 5241 5241 5240 5238 5237 5235 5233 5232 5232 5232 5232 5232
5211 5213 5215 5217 5219 5221 5223 5224 5226 5227 5228 5229 5230 5231 5232 5233 5234 5235 5235 5236 5236 5237 5238 5238 5239 5239 5239 5239 5239 5239 5239 5239 5239 5239 5240 5240 5240 5241 5241 5240 5240 5239 5239 5238 5238 5238 5238 5238 5238 5238 5237 5237 5238 5238 5238 5239 5238 5239 5239 5239 5239 5238 5238 5237 5237 5236 5236 5235 5235 5234 5234 5233 5232 5231 5231 5229 5227 5226 5224 5222 5221 5220 5219 5219 5218
5204 5205 5207 5209 5211 5213 5215 5217 5218 5220 5221 5222 5223 5224 5225 5226 5227 5228 5228 5228 5229 5230 5230 5231 5231 5232 5232 5232 5233 5233 5233 5233 5233 5233 5234 5234 5234 5234 5234 5233 5233 5233 5232 5232 5232 5231 5231 5230 5230 5230 5229 5229 5230 5230 5230 5231 5230 5230 5230 5230 5229 5229 5228 5228 5227 5227 5226 5226 5225 5224 5224 5223 5222 5222 5220 5219 5217 5215 5213 5211 5209 5208 5206 5205 5205
5197 5199 5201 5203 5205 5206 5208 5210 5211 5213 5214 5215 5216 5217 5218 5219 5220 5221 5221 5221 5222 5223 5223 5224 5224 5224 5225 5225 5225 5226 5226 5226 5227 5227 5227 5227 5227 5227 5226 5226 5226 5226 5226 5225 5225 5224 5224 5223 5223 5223 5223 5222 5222 5222 5222 5222 5222 5222 5222 5221 5221 5220 5219 5219 5218 5217 5217 5216 5215 5214 5213 5212 5211 5211 5209 5207 5206 5204 5202 5200 5198 5196 5193 5191 5190
5191 5193 5195 5197 5199 5200 5201 5203 5204 5206 5207 5208 5209 5210 5211 5212 5214 5214 5214 5215 5216 5216 5217 5217 5217 5218 5218 5218 5218 5219 5219 5220 5220 5220 5220 5220 5220 5220 5219 5219 5219 5219 5218 5218 5217 5217 5217 5217 5216 5216 5216 5215 5215 5214 5214 5214 5213 5213 5213 5213 5212 5211 5210 5209 5209 5208 5207 5206 5205 5204 5202 5201 5199 5198 5197 5195 5194 5191 5189 5188 5186 5183 5181 5178 5177
5185 5187 5189 5191 5193 5194 5196 5197 5198 5200 5201 5202 5203 5204 5205 5206 5207 5208 5208 5209 5209 5210 5211 5211 5211 5211 5211 5211 5212 5212 5212 5212 5212 5213 5213 5213 5213 5213 5212 5212 5212 5211 5210 5210 5210 5210 5210 5210 5209 5209 5208 5207 5207 5206 5206 5205 5205 5204 5204 5203 5203 5202 5201 5200 5199 5198 5197 5195 5194 5193 5191 5189 5188 5186 5184 5182 5180 5178 5176 5174 5172 5170 5167 5164 5162
5180 5182 5184 5186 5188 5189 5190 5192 5193 5194 5195 5196 5197 5198 5199 5200 5201 5201 5202 5203 5204 5204 5205 5205 5205 5205 5204 5205 5205 5205 5205 5205 5206 5206 5206 5206 5206 5206 5205 5205 5204 5203 5203 5203 5203 5203 5202 5202 5201 5200 5200 5199 5199 5198 5197 5196 5196 5195 5195 5194 5193 5192 5191 5190 5188 5187 5186 5184 5183 5181 5179 5178 5176 5174 5172 5170 5167 5165 5163 5160 5158 5155 5153 5150 5148
5176 5178 5179 5181 5183 5184 5185 5187 5188 5189 5189 5191 5192 5193 5194 5195 5195 5196 5196 5197 5198 5198 5199 5199 5200 5199 5198 5199 5199 5199 5199 5199 5199 5199 5199 5200 5200 5199 5198 5198 5198 5197 5196 5195 5195 5195 5194 5193 5193 5192 5191 5191 5190 5189 5188 5187 5186 5186 5185 5184 5183 5182 5181 5180 5178 5177 5175 5173 5172 5170 5168 5167 5165 5163 5161 5159 5156 5154 5151 5149 5146 5143 5141 5138 5136
5172 5174 5175 5177 5178 5180 5181 5182 5183 5184 5184 5185 5187 5188 5189 5189 5190 5191 5191 5192 5192 5193 5193 5194 5194 5194 5193 5193 5193 5193 5193 5193 5193 5193 5193 5193 5193 5192 5192 5191 5191 5190 5189 5188 5187 5187 5186 5185 5184 5183 5182 5182 5181 5180 5179 5178 5177 5176 5175 5174 5173 5172 5171 5170 5168 5167 5165 5164 5162 5161 5159 5158 5156 5154 5151 5149 5147 5144 5142 5139 5136 5133 5131 5128 5125
5169 5171 5172 5173 5175 5176 5177 5178 5178 5179 5180 5181 5182 5183 5184 5185 5185 5185 5186 5187 5187 5188 5188 5189 5189 5189 5189 5189 5188 5188 5188 5188 5188 5187 5187 5187 5186 5185 5184 5184 5183 5182 5181 5180 5179 5178 5177 5176 5175 5174 5173 5173 5172 5170 5169 5168 5167 5166 5165 5164 5164 5162 5161 5160 5159 5158 5157 5156 5154 5153 5151 5150 5147 5145 5143 5141 5138 5135 5133 5130 5127 5124 5121 5118 5115
5167 5168 5169 5170 5171 5172 5173 5174 5175 5175 5176 5177 5177 5178 5179 5180 5180 5181 5181 5182 5183 5183 5184 5184 5185 5185 5185 5185 5184 5184 5183 5183 5182 5181 5181 5181 5179 5178 5177 5177 5176 5174 5173 5172 5171 5170 5168 5167 5166 5165 5164 5163 5162 5161 5160 5159 5158 5157 5156 5156 5155 5155 5154 5153 5152 5151 5150 5148 5147 5145 5143 5142 5139 5137 5134 5132 5129 5126 5123 5120 5117 5114 5111 5107 5104
5165 5165 5166 5167 5168 5169 5170 5170 5171 5172 5172 5173 5173 5174 5175 5175 5176 5177 5178 5178 5179 5179 5180 5180 5180 5180 5180 5180 5179 5179 5178 5177 5176 5176 5175 5174 5173 5171 5170 5170 5168 5167 5166 5164 5163 5161 5160 5159 5158 5156 5155 5155 5154 5153 5152 5151 5151 5150 5150 5149 5149 5148 5147 5146 5145 5144 5143 5141 5139 5137 5135 5133 5131 5128 5125 5123 5120 5116 5113 5110 5107 5104 5100 5096 5093
5162 5163 5164 5164 5165 5166 5167 5167 5168 5168 5169 5169 5170 5171 5171 5172 5172 5173 5174 5174 5175 5176 5176 5176 5176 5176 5175 5175 5174 5174 5173 5171 5171 5170 5168 5167 5166 5164 5163 5162 5161 5160 5158 5157 5155 5154 5152 5151 5149 5148 5147 5146 5146 5145 5145 5145 5144 5144 5144 5143 5143 5142 5141 5140 5138 5137 5135 5133 5131 5129 5127 5124 5122 5119 5116 5113 5110 5107 5103 5100 5096 5093 5089 5085 5082
5161 5161 5162 5162 5162 5163 5164 5164 5165 5165 5166 5166 5167 5167 5168 5168 5169 5169 5170 5170 5170 5171 5171 5171 5171 5171 5170 5169 5169 5168 5167 5165 5164 5163 5162 5160 5159 5157 5156 5154 5153 5152 5151 5149 5147 5146 5144 5142 5141 5140 5139 5139 5139 5139 5139 5138 5138 5138 5137 5137 5136 5135 5134 5133 5131 5129 5128 5126 5123 5121 5118 5116 5113 5110 5107 5104 5101 5097 5094 5090 5086 5082 5078 5074 5071
5159 5159 5159 5160 5160 5160 5161 5161 5162 5162 5163 5163 5164 5164 5164 5165 5165 5165 5166 5166 5166 5166 5166 5166 5166 5165 5164 5163 5162 5161 5160 5159 5158 5156 5155 5153 5151 5150 5148 5147 5145 5144 5142 5141 5139 5138 5136 5135 5134 5133 5133 5133 5132 5132 5132 5132 5132 5132 5131 5130 5130 5129 5127 5126 5124 5122 5120 5118 5115 5113 5110 5107 5104 5101 5098 5094 5091 5087 5083 5080 5075 5071 5067 5063 5059
5157 5157 5157 5158 5158 5158 5158 5159 5159 5159 5160 5160 5160 5161 5161 5161 5161 5161 5161 5161 5161 5161 5161 5161 5160 5159 5158 5157 5156 5155 5153 5152 5151 5149 5148 5146 5144 5142 5141 5139 5137 5135 5134 5132 5131 5130 5128 5128 5127 5126 5126 5127 5127 5126 5126 5126 5126 5126 5125 5124 5123 5122 5121 5119 5117 5115 5113 5110 5108 5105 5102 5098 5095 5092 5088 5084 5080 5076 5072 5068 5064 5060 5056 5052 5047
5156 5156 5156 5156 5156 5156 5156 5156 5157 5157 5157 5157 5157 5157 5157 5157 5157 5157 5157 5157 5156 5156 5156 5155 5155 5154 5153 5152 5150 5149 5147 5145 5144 5142 5140 5139 5137 5135 5133 5131 5129 5127 5126 5124 5123 5122 5121 5121 5121 5121 5121 5121 5121 5121 5121 5120 5120 5119 5119 5118 5117 5116 5114 5112 5110 5107 5105 5102 5099 5096 5093 5090 5086 5082 5078 5074 5070 5066 5062 5057 5053 5048 5044 5040 5035
5154 5154 5154 5154 5154 5154 5154 5154 5154 5154 5154 5154 5154 5154 5154 5153 5153 5153 5152 5152 5152 5151 5150 5150 5149 5148 5147 5146 5145 5143 5141 5139 5137 5135 5133 5131 5130 5128 5126 5125 5123 5121 5119 5117 5116 5115 5115 5115 5115 5115 5115 5115 5115 5115 5115 5114 5114 5113 5113 5112 5110 5109 5107 5105 5103 5100 5097 5095 5091 5088 5085 5081 5077 5073 5069 5065 5060 5056 5051 5047 5042 5037 5033 5029 5025
5153 5152 5152 5152 5152 5151 5151 5151 5151 5151 5151 5151 5150 5150 5150 5149 5149 5148 5148 5147 5146 5146 5145 5144 5143 5142 5141 5140 5138 5137 5135 5133 5131 5129 5127 5125 5123 5121 5119 5118 5116 5114 5112 5111 5110 5109 5109 5109 5109 5109 5109 5109 5109 5109 5109 5109 5108 5108 5107 5105 5104 5102 5100 5098 5096 5093 5090 5087 5084 5080 5076 5072 5068 5064 5059 5055 5051 5046 5041 5037 5032 5028 5023 5019 5015
5150 5150 5149 5149 5149 5148 5148 5148 5148 5147 5147 5147 5146 5146 5145 5144 5144 5143 5142 5142 5141 5140 5139 5138 5137 5136 5135 5134 5132 5130 5129 5127 5125 5123 5121 5119 5117 5115 5113 5111 5109 5108 5106 5105 5104 5104 5103 5103 5103 5103 5103 5104 5104 5104 5103 5103 5102 5102 5100 5099 5097 5095 5093 5091 5088 5086 5082 5079 5076 5072 5068 5063 5059 5054 5050 5046 5041 5037 5032 5028 5024 5019 5015 5011 5007
5147 5147 5146 5146 5145 5145 5144 5144 5143 5143 5142 5142 5141 5141 5140 5139 5138 5138 5137 5136 5135 5134 5133 5132 5130 5129 5128 5127 5125 5123 5122 5120 5118 5117 5115 5113 5110 5108 5106 5105 5103 5101 5100 5099 5098 5098 5097 5097 5097 5098 5098 5098 5098 5098 5098 5097 5096 5095 5094 5093 5091 5089 5086 5084 5081 5078 5075 5071 5067 5063 5059 5055 5050 5046 5041 5037 5033 5029 5024 5020 5016 5012 5008 5004 4999
5144 5143 5142 5142 5141 5140 5140 5139 5138 5138 5137 5136 5136 5135 5134 5133 5132 5131 5131 5130 5128 5127 5126 5125 5123 5122 5120 5119 5118 5116 5115 5113 5111 5110 5108 5106 5104 5102 5100 5098 5097 5095 5094 5093 5092 5092 5092 5092 5092 5092 5092 5092 5092 5092 5092 5091 5090 5089 5088 5086 5084 5082 5080 5077 5074 5071 5068 5064 5060 5056 5051 5047 5043 5038 5034 5029 5026 5022 5018 5014 5010 5006 5002 4998 4993
5140 5139 5138 5137 5136 5135 5135 5134 5133 5132 5131 5131 5130 5129 5128 5127 5126 5125 5124 5123 5122 5120 5119 5118 5116 5115 5113 5111 5110 5108 5107 5105 5104 5102 5100 5099 5097 5095 5094 5092 5090 5089 5088 5087 5086 5086 5086 5086 5086 5086 5086 5087 5087 5087 5086 5085 5085 5083 5082 5080 5078 5076 5073 5070 5067 5064 5060 5056 5052 5048 5044 5039 5035 5031 5027 5023 5019 5016 5012 5009 5005 5001 4997 4993 4989
5135 5134 5133 5132 5131 5130 5130 5129 5128 5127 5126 5125 5124 5123 5122 5121 5120 5119 5117 5116 5115 5113 5112 5110 5109 5107 5105 5104 5102 5101 5099 5097 5096 5094 5093 5091 5090 5088 5087 5085 5084 5083 5081 5080 5080 5080 5080 5080 5080 5080 5081 5081 5081 5081 5080 5080 5078 5077 5075 5074 5072 5069 5067 5064 5061 5057 5053 5049 5045 5041 5037 5032 5028 5025 5021 5018 5014 5011 5007 5004 5000 4997 4993 4989 4986
5131 5129 5128 5127 5126 5125 5124 5123 5122 5121 5120 5119 5117 5116 5115 5114 5113 5112 5111 5109 5108 5106 5105 5103 5101 5100 5098 5096 5095 5093 5091 5089 5088 5086 5085 5083 5082 5081 5080 5078 5077 5076 5075 5074 5074 5074 5074 5074 5074 5075 5075 5075 5075 5075 5074 5074 5072 5071 5069 5067 5065 5063 5060 5057 5054 5050 5046 5042 5038 5034 5030 5026 5023 5019 5016 5013 5010 5007 5004 5000 4997 4993 4990 4986 4983
5125 5124 5122 5121 5120 5119 5118 5117 5115 5114 5113 5112 5111 5109 5108 5107 5106 5105 5103 5102 5100 5099 5097 5096 5094 5092 5090 5089 5087 5085 5083 5081 5079 5078 5077 5075 5074 5073 5072 5071 5070 5070 5069 5068 5068 5068 5068 5068 5069 5069 5070 5070 5070 5069 5069 5068 5067 5065 5063 5061 5059 5057 5054 5051 5047 5044 5040 5036 5032 5028 5024 5021 5018 5015 5012 5009 5006 5003 5000 4997 4994 4991 4988 4985 4982
5119 5117 5116 5115 5114 5112 5111 5110 5109 5107 5106 5105 5104 5102 5101 5100 5099 5097 5096 5095 5093 5091 5090 5088 5086 5084 5083 5081 5079 5077 5075 5073 5071 5070 5069 5068 5067 5066 5065 5064 5063 5063 5063 5063 5063 5063 5063 5063 5064 5064 5065 5065 5064 5064 5063 5062 5061 5059 5058 5056 5053 5051 5048 5045 5041 5038 5034 5030 5026 5023 5020 5017 5014 5011 5008 5006 5003 5000 4997 4995 4992 4989 4986 4983 4980
5112 5111 5109 5108 5107 5106 5104 5103 5102 5101 5099 5098 5097 5095 5094 5093 5091 5090 5088 5087 5085 5084 5082 5080 5079 5077 5075 5073 5071 5069 5067 5065 5064 5062 5061 5060 5059 5058 5057 5057 5056 5056 5057 5057 5058 5058 5058 5059 5059 5060 5060 5060 5059 5059 5058 5057 5056 5054 5052 5050 5048 5045 5042 5039 5036 5032 5028 5025 5021 5018 5016 5013 5011 5008 5006 5003 5001 4998 4996 4993 4991 4988 4985 4983 4980